Vorticity
8 8 5 6 7 7 1 5 7 7 6 7 6 5 4 4 5 4 4 4 6 8 8 9 10 10 9 9 9 9 8 8 8 9 8 8 9 10
2 5 6 4 5 6 8 8 8 7 6 4 5 5 5 2 1 3 4 7 9 10 11 10 9 8 8 7 7 7 7 7 6 5 6 7 8 8
5 5 7 7 4 4 7 7 7 8 7 6 6 6 5 4 5 8 9 10 10 10 9 9 9 9 8 8 7 7 7 7 8 8 8 7 9 7
8 3 2 5 7 8 8 7 7 8 8 6 4 5 6 9 9 8 9 9 8 8 9 9 9 9 10 9 9 8 9 8 9 10 10 10 10 11
6 8 6 7 7 7 7 6 7 7 7 7 7 6 7 8 9 8 7 7 7 8 10 10 10 10 9 10 10 9 10 10 11 13 12 13 13 14
5 3 2 4 5 6 7 6 7 7 7 8 7 7 6 6 8 7 6 8 10 12 11 10 10 10 12 10 10 12 12 12 11 10 10 8 8 8
4 5 7 7 6 5 6 7 7 7 8 7 6 4 4 5 4 5 7 9 10 11 8 13 12 12 14 12 12 11 11 11 11 11 11 11 11 11
4 4 4 4 6 6 6 7 6 7 6 7 6 5 4 5 5 8 10 10 9 13 13 13 13 13 13 11 12 12 11 11 11 9 9 8 8 8
10 9 9 8 8 7 6 6 7 6 8 7 4 4 3 4 5 9 10 9 12 12 11 13 15 14 13 13 12 11 10 10 10 10 10 9 9 8
8 8 7 7 7 6 6 6 6 5 5 4 4 7 7 7 9 11 12 13 12 13 12 12 15 16 15 12 8 6 5 6 7 7 8 9 10 11
7 7 7 7 6 6 6 6 5 5 5 6 8 9 9 9 14 14 15 12 11 14 14 13 8 9 8 7 7 6 7 8 8 8 9 9 11 13
7 7 7 6 7 6 7 7 6 6 9 12 11 10 13 15 14 12 12 10 14 12 8 10 11 8 12 7 9 10 10 7 8 9 11 15 17 17
4 5 5 6 7 7 10 11 10 13 11 12 14 17 16 13 11 11 12 11 8 6 9 10 10 11 9 13 8 8 8 9 10 11 11 12 14 14
11 10 10 12 12 13 12 12 14 16 24 25 16 12 12 10 12 9 6 6 8 12 12 9 14 10 11 8 11 8 8 10 9 8 9 10 9 10
16 18 19 18 17 18 16 17 18 18 12 9 1 5 12 11 8 8 9 9 10 9 9 5 4 5 11 11 9 10 10 8 7 6 8 12 14 12
25 23 21 19 19 25 24 28 23 18 14 9 14 12 10 8 9 9 8 6 7 7 8 9 11 11 9 10 10 8 9 6 11 11 13 12 12 14
27 26 26 28 26 23 18 10 5 3 7 11 10 12 11 8 6 5 5 8 7 8 11 12 12 14 13 13 11 11 9 10 11 11 11 11 13 16
-1 -1 5 16 22 26 24 21 20 14 9 2 5 9 7 8 7 9 9 10 13 13 14 15 12 9 6 5 8 7 10 10 13 17 17 14 12 9
9 8 11 32 32 -18 8 15 16 32 35 26 20 13 11 11 13 14 14 16 14 11 9 8 5 4 6 10 12 15 16 15 16 14 12 11 12 12
9 2 -2 11 -18 18 24 -5 4 3 -7 12 22 19 20 19 19 14 6 7 10 7 6 4 6 10 15 17 14 13 14 12 13 12 10 10 11 11
12 12 8 9 11 -2 -12 8 18 22 19 10 11 4 12 13 10 11 12 8 3 6 15 18 20 19 16 12 13 14 12 6 9 10 7 5 6 6
16 11 17 13 15 11 9 7 -1 4 8 12 10 7 4 3 6 4 1 -1 11 16 18 18 17 12 11 11 9 8 10 10 6 6 9 12 16 8
15 18 21 19 18 16 19 16 14 11 -2 -4 -5 -7 -3 1 5 10 18 20 19 20 18 13 13 10 7 8 8 6 6 8 11 15 10 11 14 9
Height
3066 3068 3069 3070 3072 3074 3075 3076 3077 3079 3082 3085 3085 3085 3085 3085 3085 3085 3086 3087 3088 3087 3087 3086 3085 3084 3084 3083 3083 3083 3082 3084 3084 3085 3083 3084 3087 3089
3055 3058 3059 3061 3062 3063 3064 3066 3067 3067 3069 3074 3076 3076 3075 3075 3075 3074 3075 3074 3074 3074 3073 3073 3072 3072 3071 3070 3070 3069 3069 3069 3069 3070 3069 3070 3071 3073
3045 3047 3049 3050 3052 3053 3054 3055 3056 3056 3057 3061 3064 3066 3067 3065 3065 3064 3063 3063 3063 3062 3062 3062 3061 3059 3058 3058 3056 3056 3055 3055 3055 3055 3056 3056 3057 3056
3034 3036 3038 3039 3041 3042 3043 3044 3046 3046 3045 3046 3050 3053 3054 3055 3053 3053 3052 3050 3049 3049 3048 3048 3048 3047 3046 3045 3043 3042 3041 3042 3042 3041 3041 3041 3042 3041
3022 3024 3026 3028 3031 3032 3032 3034 3034 3034 3034 3033 3034 3038 3040 3041 3041 3040 3040 3039 3037 3036 3035 3034 3033 3032 3030 3028 3027 3026 3027 3027 3027 3027 3026 3026 3026 3026
3008 3010 3013 3015 3018 3020 3021 3022 3023 3023 3023 3021 3020 3022 3023 3026 3025 3025 3026 3025 3024 3023 3020 3018 3018 3018 3016 3014 3012 3012 3013 3013 3013 3013 3011 3011 3011 3010
2992 2996 3000 3003 3004 3006 3008 3010 3010 3010 3010 3010 3009 3009 3009 3009 3009 3008 3007 3006 3008 3006 3005 3005 3003 3002 3002 3000 3000 3000 2999 2999 2998 2998 2998 2997 2996 2996
2982 2984 2986 2989 2991 2993 2994 2995 2997 2996 2996 2996 2996 2995 2996 2995 2993 2992 2990 2989 2988 2989 2990 2990 2988 2987 2987 2987 2987 2987 2986 2985 2983 2984 2983 2983 2982 2980
2971 2973 2976 2977 2977 2978 2980 2981 2981 2981 2980 2982 2982 2983 2981 2980 2978 2977 2976 2973 2972 2972 2970 2972 2975 2973 2973 2975 2974 2973 2972 2971 2970 2970 2969 2968 2967 2966
2955 2959 2961 2963 2964 2965 2966 2967 2968 2967 2968 2968 2965 2965 2965 2963 2962 2960 2959 2958 2958 2958 2957 2952 2957 2959 2960 2961 2960 2959 2958 2958 2957 2955 2953 2952 2951 2950
2940 2943 2945 2947 2950 2953 2952 2949 2951 2952 2954 2955 2955 2952 2948 2947 2944 2944 2946 2942 2942 2946 2947 2940 2942 2940 2943 2944 2945 2945 2945 2944 2942 2940 2938 2936 2934 2932
2925 2926 2929 2931 2934 2936 2935 2933 2933 2935 2939 2940 2938 2935 2934 2933 2932 2931 2931 2927 2929 2930 2936 2928 2929 2928 2926 2929 2929 2928 2928 2928 2925 2924 2923 2921 2919 2916
2906 2909 2912 2915 2915 2914 2916 2915 2917 2921 2920 2918 2920 2921 2920 2919 2919 2920 2920 2917 2916 2916 2926 2913 2914 2916 2912 2912 2914 2912 2910 2909 2906 2906 2905 2905 2904 2902
2888 2890 2892 2894 2895 2897 2898 2900 2901 2902 2901 2901 2903 2902 2903 2907 2908 2907 2906 2905 2905 2906 2912 2903 2901 2901 2899 2897 2897 2899 2895 2893 2890 2888 2888 2888 2887 2886
2870 2871 2873 2875 2877 2878 2881 2884 2886 2886 2886 2886 2886 2886 2890 2891 2891 2892 2892 2893 2893 2895 2896 2893 2890 2889 2887 2884 2883 2883 2879 2878 2876 2872 2871 2869 2867 2865
2854 2855 2857 2859 2861 2863 2864 2866 2869 2871 2872 2872 2873 2876 2876 2876 2878 2878 2878 2879 2879 2880 2881 2880 2878 2876 2874 2872 2869 2866 2865 2860 2861 2858 2856 2852 2850 2848
2839 2840 2842 2844 2846 2848 2851 2852 2855 2856 2858 2861 2861 2863 2864 2865 2865 2866 2867 2867 2866 2867 2867 2866 2864 2862 2861 2859 2854 2852 2850 2848 2846 2843 2840 2834 2832 2831
2832 2830 2832 2834 2834 2835 2837 2839 2841 2843 2845 2847 2848 2850 2851 2852 2853 2854 2854 2854 2854 2854 2854 2853 2852 2849 2847 2846 2844 2839 2837 2832 2831 2829 2825 2818 2814 2816
2823 2823 2821 2823 2824 2826 2826 2827 2828 2830 2832 2833 2835 2836 2839 2840 2841 2842 2842 2842 2842 2842 2841 2841 2839 2836 2831 2825 2831 2830 2822 2820 2816 2813 2811 2805 2799 2798
2809 2809 2810 2811 2812 2813 2815 2818 2819 2820 2821 2823 2824 2825 2827 2829 2829 2830 2831 2831 2831 2830 2829 2828 2827 2825 2819 2813 2807 2812 2816 2807 2804 2798 2795 2792 2786 2783
2797 2798 2799 2801 2803 2804 2806 2808 2809 2811 2813 2814 2816 2817 2819 2819 2820 2820 2821 2821 2820 2818 2815 2814 2815 2812 2806 2801 2794 2796 2799 2801 2794 2786 2782 2775 2769 2764
2785 2786 2787 2789 2791 2793 2795 2797 2799 2801 2803 2804 2806 2808 2809 2809 2810 2810 2810 2809 2808 2806 2803 2803 2803 2800 2796 2792 2787 2784 2783 2784 2784 2779 2773 2766 2758 2745
2775 2775 2776 2777 2779 2781 2783 2785 2787 2790 2793 2794 2796 2797 2798 2798 2799 2799 2798 2797 2796 2794 2793 2792 2792 2790 2787 2783 2778 2773 2770 2767 2763 2758 2755 2757 2748 2740